When you browse on this site, cookies collect data to enhance your experience and personalize the content and advertising you see.
Visit our Privacy Policy to learn more. By continuing to use the site, you agree to this use of cookies and data.
  • Em Portugal
  • Lista de países
  • Para 7 dias
  • Temperatura da água
  • Mapas de satélite
  • Mapa do tempo
  • Widgets de tempo
  • user-avatar
    Iniciar Sessão

    Previsão horária em Barra

    Hoje, 24 Maio, Sexta-feira

    Tempo Temperatura Precipitação Vento Pressão Humidade
    00:00 +20°C° 0.3 mm 3 m/s 752 mmHg 95%
    01:00 +20°C° 0.3 mm 3 m/s 752 mmHg 96%
    02:00 +20°C° 0.3 mm 3 m/s 752 mmHg 96%
    03:00 +20°C° 0.3 mm 4 m/s 752 mmHg 96%
    04:00 +20°C° 0 mm 3 m/s 752 mmHg 97%
    05:00 +20°C° 0.3 mm 3 m/s 752 mmHg 97%
    06:00 +20°C° 0.3 mm 4 m/s 752 mmHg 97%
    07:00 +20°C° 0.3 mm 4 m/s 752 mmHg 97%
    08:00 +21°C° 0.2 mm 4 m/s 752 mmHg 92%
    09:00 +22°C° 0.2 mm 4 m/s 752 mmHg 88%
    10:00 +23°C° 0 mm 4 m/s 752 mmHg 80%
    11:00 +25°C° 0.1 mm 4 m/s 752 mmHg 75%
    12:00 +26°C° 0.1 mm 4 m/s 751 mmHg 69%
    13:00 +27°C° 0.1 mm 4 m/s 751 mmHg 64%
    14:00 +26°C° 0.1 mm 4 m/s 751 mmHg 67%
    15:00 +26°C° 0.1 mm 4 m/s 751 mmHg 69%
    16:00 +26°C° 0 mm 4 m/s 750 mmHg 72%
    17:00 +23°C° 0.1 mm 4 m/s 751 mmHg 78%
    18:00 +22°C° 0.1 mm 4 m/s 751 mmHg 85%
    19:00 +21°C° 0.1 mm 3 m/s 751 mmHg 91%
    20:00 +21°C° 0.2 mm 3 m/s 751 mmHg 92%
    21:00 +21°C° 0.2 mm 3 m/s 752 mmHg 94%
    22:00 +21°C° 0 mm 3 m/s 752 mmHg 95%
    23:00 +21°C° 0.2 mm 3 m/s 752 mmHg 95%

    Amanhã, 25 Maio, Sábado

    Tempo Temperatura Precipitação Vento Pressão Humidade
    00:00 +21°C° 0.2 mm 3 m/s 752 mmHg 95%
    01:00 +20°C° 0.2 mm 3 m/s 752 mmHg 95%
    02:00 +20°C° 0.2 mm 3 m/s 751 mmHg 96%
    03:00 +20°C° 0.2 mm 3 m/s 751 mmHg 96%
    04:00 +20°C° 0.2 mm 3 m/s 751 mmHg 96%
    05:00 +20°C° 0.3 mm 3 m/s 751 mmHg 96%
    06:00 +20°C° 0.3 mm 3 m/s 751 mmHg 97%
    07:00 +20°C° 0.3 mm 3 m/s 751 mmHg 97%
    08:00 +21°C° 0.3 mm 3 m/s 751 mmHg 95%
    09:00 +21°C° 0.3 mm 3 m/s 751 mmHg 94%
    10:00 +22°C° 0.3 mm 3 m/s 751 mmHg 92%
    11:00 +22°C° 0.4 mm 3 m/s 751 mmHg 92%
    12:00 +22°C° 0.4 mm 3 m/s 751 mmHg 92%
    13:00 +22°C° 0.4 mm 3 m/s 750 mmHg 92%
    14:00 +24°C° 0.5 mm 3 m/s 750 mmHg 90%
    15:00 +24°C° 0.5 mm 3 m/s 750 mmHg 88%
    16:00 +24°C° 0.5 mm 3 m/s 749 mmHg 86%
    17:00 +22°C° 0.6 mm 3 m/s 750 mmHg 89%
    18:00 +21°C° 0.6 mm 3 m/s 750 mmHg 92%
    19:00 +21°C° 0.6 mm 2 m/s 750 mmHg 96%
    20:00 +20°C° 0.7 mm 2 m/s 751 mmHg 96%
    21:00 +20°C° 0.7 mm 2 m/s 751 mmHg 96%
    22:00 +20°C° 0.7 mm 2 m/s 751 mmHg 96%
    23:00 +20°C° 0.5 mm 2 m/s 751 mmHg 96%

    Depois de amanhã, 26 Maio, Domingo

    Tempo Temperatura Precipitação Vento Pressão Humidade
    00:00 +20°C° 0.5 mm 2 m/s 751 mmHg 96%
    01:00 +20°C° 0.5 mm 3 m/s 751 mmHg 96%
    02:00 +20°C° 0.7 mm 3 m/s 751 mmHg 95%
    03:00 +21°C° 0.7 mm 3 m/s 750 mmHg 95%
    04:00 +21°C° 0.7 mm 3 m/s 750 mmHg 95%
    05:00 +21°C° 0.5 mm 3 m/s 750 mmHg 95%
    06:00 +21°C° 0.5 mm 3 m/s 751 mmHg 95%
    07:00 +21°C° 0.5 mm 4 m/s 751 mmHg 95%
    08:00 +21°C° 0.8 mm 4 m/s 751 mmHg 92%
    09:00 +22°C° 0.8 mm 4 m/s 751 mmHg 90%
    10:00 +23°C° 0.8 mm 4 m/s 751 mmHg 87%
    11:00 +23°C° 0.9 mm 4 m/s 751 mmHg 85%
    12:00 +25°C° 0.9 mm 4 m/s 750 mmHg 83%
    13:00 +25°C° 0.9 mm 4 m/s 750 mmHg 81%
    14:00 +25°C° 0.8 mm 4 m/s 749 mmHg 83%
    15:00 +25°C° 0.8 mm 4 m/s 749 mmHg 85%
    16:00 +24°C° 0.8 mm 3 m/s 749 mmHg 87%
    17:00 +24°C° 0.7 mm 3 m/s 749 mmHg 89%
    18:00 +22°C° 0.7 mm 3 m/s 750 mmHg 92%
    19:00 +21°C° 0.7 mm 2 m/s 750 mmHg 95%
    20:00 +21°C° 0.5 mm 2 m/s 751 mmHg 95%
    21:00 +21°C° 0.5 mm 2 m/s 751 mmHg 96%
    22:00 +20°C° 0.5 mm 2 m/s 751 mmHg 96%
    23:00 +20°C° 0.3 mm 2 m/s 751 mmHg 96%

    27 Maio, Segunda-feira

    Tempo Temperatura Precipitação Vento Pressão Humidade
    00:00 +20°C° 0.3 mm 2 m/s 751 mmHg 97%
    01:00 +20°C° 0.3 mm 2 m/s 751 mmHg 97%
    02:00 +20°C° 0.4 mm 2 m/s 750 mmHg 97%
    03:00 +20°C° 0.4 mm 2 m/s 750 mmHg 97%
    04:00 +20°C° 0.4 mm 2 m/s 750 mmHg 97%
    05:00 +20°C° 0.1 mm 2 m/s 750 mmHg 97%
    06:00 +20°C° 0.1 mm 2 m/s 751 mmHg 96%
    07:00 +20°C° 0.1 mm 2 m/s 751 mmHg 96%
    08:00 +21°C° 0 mm 2 m/s 751 mmHg 89%
    09:00 +24°C° 0 mm 2 m/s 752 mmHg 83%
    10:00 +25°C° 0 mm 2 m/s 752 mmHg 77%
    11:00 +26°C° 0.1 mm 2 m/s 751 mmHg 72%
    12:00 +26°C° 0.1 mm 2 m/s 751 mmHg 67%
    13:00 +27°C° 0.1 mm 3 m/s 750 mmHg 63%
    14:00 +27°C° 0.1 mm 3 m/s 750 mmHg 65%
    15:00 +26°C° 0.1 mm 2 m/s 750 mmHg 66%
    16:00 +26°C° 0.1 mm 2 m/s 749 mmHg 68%
    17:00 +25°C° 0 mm 2 m/s 750 mmHg 75%
    18:00 +23°C° 0 mm 2 m/s 750 mmHg 83%
    19:00 +22°C° 0 mm 1 m/s 751 mmHg 90%
    20:00 +21°C° 0 mm 1 m/s 751 mmHg 91%
    21:00 +21°C° 0 mm 1 m/s 751 mmHg 92%
    22:00 +21°C° 0 mm 1 m/s 752 mmHg 93%
    23:00 +21°C° 0 mm 1 m/s 751 mmHg 94%

    28 Maio, Terça-feira

    Tempo Temperatura Precipitação Vento Pressão Humidade
    00:00 +20°C° 0 mm 1 m/s 751 mmHg 94%
    01:00 +19°C° 0 mm 2 m/s 751 mmHg 94%
    02:00 +19°C° 0 mm 2 m/s 751 mmHg 93%
    03:00 +19°C° 0 mm 2 m/s 750 mmHg 93%
    04:00 +19°C° 0 mm 2 m/s 750 mmHg 92%
    05:00 +19°C° 0 mm 2 m/s 750 mmHg 92%
    06:00 +19°C° 0 mm 2 m/s 751 mmHg 91%
    07:00 +19°C° 0 mm 2 m/s 751 mmHg 90%
    08:00 +21°C° 0 mm 2 m/s 751 mmHg 81%
    09:00 +24°C° 0 mm 2 m/s 752 mmHg 72%
    10:00 +26°C° 0 mm 2 m/s 752 mmHg 63%
    11:00 +27°C° 0 mm 2 m/s 751 mmHg 60%
    12:00 +27°C° 0 mm 2 m/s 751 mmHg 57%
    13:00 +28°C° 0 mm 2 m/s 750 mmHg 55%
    14:00 +27°C° 0 mm 2 m/s 750 mmHg 57%
    15:00 +27°C° 0 mm 2 m/s 750 mmHg 60%
    16:00 +26°C° 0 mm 3 m/s 749 mmHg 62%
    17:00 +25°C° 0 mm 2 m/s 750 mmHg 71%
    18:00 +23°C° 0 mm 2 m/s 750 mmHg 79%
    19:00 +20°C° 0 mm 2 m/s 751 mmHg 88%
    20:00 +20°C° 0.1 mm 2 m/s 751 mmHg 89%
    21:00 +21°C° 0.1 mm 1 m/s 752 mmHg 91%
    22:00 +21°C° 0.1 mm 1 m/s 752 mmHg 93%
    23:00 +21°C° 0.1 mm 1 m/s 751 mmHg 93%

    29 Maio, Quarta-feira

    Tempo Temperatura Precipitação Vento Pressão Humidade
    00:00 +21°C° 0.1 mm 1 m/s 751 mmHg 94%
    01:00 +21°C° 0.1 mm 1 m/s 751 mmHg 95%
    02:00 +20°C° 0.2 mm 1 m/s 750 mmHg 95%
    03:00 +20°C° 0.2 mm 1 m/s 750 mmHg 96%
    04:00 +20°C° 0.2 mm 1 m/s 750 mmHg 96%
    05:00 +20°C° 0.1 mm 1 m/s 750 mmHg 96%
    06:00 +19°C° 0.1 mm 2 m/s 751 mmHg 96%
    07:00 +19°C° 0.1 mm 2 m/s 751 mmHg 96%
    08:00 +21°C° 0.2 mm 2 m/s 751 mmHg 90%
    09:00 +23°C° 0.2 mm 2 m/s 752 mmHg 83%
    10:00 +25°C° 0.2 mm 2 m/s 752 mmHg 77%
    11:00 +25°C° 0.3 mm 2 m/s 751 mmHg 75%
    12:00 +26°C° 0.3 mm 2 m/s 750 mmHg 73%
    13:00 +26°C° 0.3 mm 2 m/s 750 mmHg 71%
    14:00 +26°C° 0.2 mm 2 m/s 749 mmHg 73%
    15:00 +25°C° 0.2 mm 2 m/s 749 mmHg 74%
    16:00 +25°C° 0.2 mm 2 m/s 749 mmHg 75%
    17:00 +24°C° 0.1 mm 2 m/s 749 mmHg 81%
    18:00 +21°C° 0.1 mm 2 m/s 750 mmHg 86%
    19:00 +21°C° 0.1 mm 1 m/s 750 mmHg 92%
    20:00 +21°C° 0.2 mm 1 m/s 751 mmHg 93%
    21:00 +21°C° 0.2 mm 1 m/s 751 mmHg 94%
    22:00 +21°C° 0.2 mm 1 m/s 751 mmHg 95%
    23:00 +20°C° 0.1 mm 1 m/s 751 mmHg 95%
    Mostrar mais